Regional Weather Roundup
Issued by NWS

Home | Current Version | Previous Version | Text Only | Print | Product List | Glossary On
Versions: 1 2 3 4 5 6 7 8 9 10 11 12 13 14 15 16 17 18 19 20 21 22 23 24 25 26 27 28 29 30 31 32 33 34 35 36 37 38 39 40 41 42 43 44 45 46 47 48 49 50
000
ASUS44 KLIX 300211
RWRLA
LOUISIANA WEATHER ROUNDUP
NATIONAL WEATHER SERVICE NEW ORLEANS LA
900 PM CDT FRI APR 29 2016

NOTE: "FAIR" INDICATES FEW OR NO CLOUDS BELOW 12,000 FEET WITH NO
      SIGNIFICANT WEATHER AND/OR OBSTRUCTIONS TO VISIBILITY.
      SKY/WX - SKY CONDITION AND SIGNIFICANT WEATHER.
      TMP - AIR TEMPERATURE.    DP   - DEWPOINT TEMPERATURE.
      RH  - RELATIVE HUMIDITY.  PRES - PRESSURE.
      HX  - HEAT INDEX.         WCI  - WIND CHILL INDEX.

*  THESE STATIONS ARE NOT NWS OR FAA STATIONS AND ARE NOT UNDER
   NWS QUALITY CONTROL.

LAZ040-048-061>063-065-066-069-300300-
SOUTHEAST LOUISIANA

CITY           SKY/WX    TMP DP  RH WIND       PRES   REMARKS
N.O. AUDUBON     N/A     78  73  83 MISG        N/A
N.O. INTL ARPT CLOUDY    78  71  79 SE12      29.85S
N.O. LAKEFRONT PTCLDY    74  74 100 SE10      29.85F
N.O. DOWNTOWN* FAIR      79  72  79 VRB7      29.86S
RESERVE*       FAIR      78  73  83 SE9       29.84R
SLIDELL        CLOUDY    76  74  93 SE7       29.85F
BATON ROUGE    MOCLDY    79  68  69 SE10      29.82R
BOOTHVILLE     CLOUDY    73  72  96 SE7       29.86F
BELLE CHASSE   CLOUDY    77  72  84 SE13      29.85F
BOGALUSA*      FAIR      77  70  80 SE7       29.88S
GALLIANO*      CLOUDY    77  73  85 SE6       29.85S
NEW ROADS*     FAIR      77  69  76 SE8       29.82R
GONZALES*      MOCLDY    78  71  79 SE8       29.82R
HAMMOND*       PTCLDY    75  70  83 SE6       29.85R
HOUMA*         CLOUDY    76  73  89 SE9       29.83S
PORT FOURCHON* PTCLDY    77  73  88 SE14G21   29.85S

$$

LAZ041-044-053-054-300300-
SOUTHWEST LOUISIANA

CITY           SKY/WX    TMP DP  RH WIND       PRES   REMARKS
LAKE CHARLES   CLOUDY    77  72  84 S12G21    29.75S
LAFAYETTE      CLOUDY    78  71  79 S10G16    29.80R
PATTERSON      NOT AVBL
SALT POINT       N/A     77  74  90 SE9G17    29.80S
NEW IBERIA     CLOUDY    77  72  84 SE15      29.81R
CHENAULT AIRPK CLOUDY    77  72  83 MISG      29.76

$$

LAZ027-028-300300-
CENTRAL LOUISIANA

CITY           SKY/WX    TMP DP  RH WIND       PRES   REMARKS
FORT POLK      CLOUDY    77  70  80 SE14      29.75R
ALEXANDRIA INT CLOUDY    77  69  76 S14       29.75R
ALEXANDRIA     CLOUDY    80  69  69 SE10      29.77S

$$

LAZ001-002-300300-
NORTHWEST LOUISIANA

CITY           SKY/WX    TMP DP  RH WIND       PRES   REMARKS
SHREVEPORT     TSTM      72  70  93 E12       29.67F FOG
BARKSDALE AFB  TSTM      71  71 100 E9        29.68F
DTN SHREVEPORT TSTM      71  68  90 E10       29.68F FOG

$$

LAZ014-016-300300-
NORTHEAST LOUISIANA

CITY           SKY/WX    TMP DP  RH WIND       PRES   REMARKS
MONROE         CLOUDY    73  70  90 CALM      29.77R
TALLULAH       CLOUDY    79  68  69 SE9       29.80R

$$




USA.gov is the U.S. government's official web portal to all federal, state and local government web resources and services.